Regional Weather Roundup
Issued by NWS

Home | Current Version | Previous Version | Text Only | Print | Product List | Glossary Off
Versions: 1 2 3 4 5 6 7 8 9 10 11 12 13 14 15 16 17 18 19 20 21 22 23 24 25 26 27 28 29 30 31 32 33 34 35 36 37 38 39 40 41 42 43 44 45 46 47 48 49 50

000
ASUS43 KFSD 291910
RWRSD

WEATHER ROUNDUP FOR SOUTH DAKOTA
NATIONAL WEATHER SERVICE SIOUX FALLS SD
200 PM CDT FRI AUG 29 2014

NOTE: "FAIR" INDICATES FEW OR NO CLOUDS BELOW 12,000 FEET WITH NO
SIGNIFICANT WEATHER AND/OR OBSTRUCTIONS TO VISIBILITY.


SDZ001>005-009-010-012>017-292000-
NORTHWEST AND NORTH CENTRAL SOUTH DAKOTA

CITY           SKY/WX    TMP DP  RH WIND       PRES   REMARKS
BUFFALO          N/A     72  55  55 NW23G31   29.94R
FAITH            N/A     69  55  60 NW16      29.96R
MOBRIDGE       MOSUNNY   75  57  53 N16       29.84R
$$

SDZ012>016-024>037-041>051-057-063-072>074-292000-
SOUTHWEST AND SOUTH CENTRAL SOUTH DAKOTA

CITY           SKY/WX    TMP DP  RH WIND       PRES   REMARKS
RAPID CTY ARPT PTSUNNY   73  52  47 NW18      30.01S
PIERRE         SUNNY     80  61  52 N21G29    29.85R
CUSTER         PTSUNNY   66  51  58 VRB3      30.11R THUNDER
ELLSWORTH AFB  MOSUNNY   73  52  47 N13G20    30.01S
PHILIP         MOSUNNY   76  56  49 N17G24    29.92R
PINE RIDGE     PTSUNNY   71  55  56 N13       29.99F
WINNER         FAIR      83  61  47 N10       29.83F
$$

SDZ004>011-016>023-039-040-292000-
NORTHEAST SOUTH DAKOTA

CITY           SKY/WX    TMP DP  RH WIND       PRES   REMARKS
ABERDEEN       PTSUNNY   74  68  81 VRB6      29.80S
WATERTOWN      PTSUNNY   73  65  75 NW6       29.80F
SISSETON         N/A     77  68  73 CALM      29.77F
$$

SDZ017-020-022-023-036>040-048>070-292000-
SOUTHEAST SOUTH DAKOTA

CITY           SKY/WX    TMP DP  RH WIND       PRES   REMARKS
SIOUX FALLS    CLOUDY    75  69  81 S10       29.78F
HURON          PTSUNNY   78  66  66 VRB5      29.79F
CHAMBERLAIN    SUNNY     80  63  56 N7        29.82S
MITCHELL       PTSUNNY   77  68  73 NW8       29.80F
YANKTON        CLOUDY    73  66  78 CALM      29.78F
$$

ABBREVIATIONS USED IN REMARKS
   TC - TEMPERATURE IN CELSIUS
  WCI - WIND CHILL INDEX
   HX - HEAT INDEX
  VSB - VISIBILITY



USA.gov is the U.S. government's official web portal to all federal, state and local government web resources and services.